• Join FlightAware (Why Join?)
  • Login
  • US Flag GB Flag 
09:22 EDT


 

Airport Tracker/Info


-or-


 

Live Flight TrackerFlight Track Log ✈ UAL4695 ✈ 21-Apr-2013 ✈ KSAV - KEWR

Flight Track Log - Related Links

Times and Time Zones

All times are in EDT time to prevent confusion due to time zone crossing. See the UAL4695 flight status page for this flight to view local times or setup timezone preferences in your user account.

Time Position Orientation Groundspeed Altitude Reporting Facility
EDT Latitude Longitude Course Direction KTS MPH feet Rate Location/Type
16:39 32.2067 -81.1542 North 254 292 6,100  Level Jacksonville Center
16:40 32.4112 -81.1653 North  Level FlightAware Approximate
16:40 32.2886 -81.1847 343° North 277 319 9,200  Level Jacksonville Center
16:41 32.5110 -81.1528 North  Level FlightAware Approximate
16:41 32.3617 -81.1808 North 277 319 11,200  Level Jacksonville Center
16:42 32.6113 -81.1500 North  Level FlightAware Approximate
16:42 32.4597 -81.1739 North 297 342 13,400  Level Jacksonville Center
16:43 32.7116 -81.1486 North  Level FlightAware Approximate
16:43 32.5431 -81.1675 North 333 383 15,200  Level Jacksonville Center
16:44 32.8115 -81.1361 North  Level FlightAware Approximate
16:44 32.6489 -81.1286 17° North 349 402 17,200  Level Jacksonville Center
16:45 32.7358 -81.0750 27° Northeast 371 427 18,100 1,200 Climbing Jacksonville Center
16:46 32.8353 -81.0211 24° Northeast 379 436 19,700 1,500 Climbing Jacksonville Center
16:47 32.9367 -80.9594 27° Northeast 384 442 21,200 1,500 Climbing Jacksonville Center
16:48 33.0422 -80.8953 27° Northeast 398 458 22,800 1,500 Climbing Jacksonville Center
16:49 33.1475 -80.8333 26° Northeast 411 473 24,300 1,500 Climbing Jacksonville Center
16:50 33.2572 -80.7686 26° Northeast 423 487 25,800 1,500 Climbing Jacksonville Center
16:51 33.3647 -80.7064 26° Northeast 423 487 27,300 1,260 Climbing Jacksonville Center
16:52 33.4742 -80.6392 27° Northeast 423 487 28,400 840 Climbing Jacksonville Center
16:53 33.5897 -80.5714 26° Northeast 434 499 29,000 300 Climbing Jacksonville Center
16:54 33.7175 -80.4931 27° Northeast 447 514 29,000  Level Jacksonville Center
16:55 33.8456 -80.4144 27° Northeast 480 552 29,000  Level Jacksonville Center
16:56 33.9733 -80.3358 27° Northeast 501 577 29,000  Level Jacksonville Center
16:57 34.1053 -80.2567 26° Northeast 506 582 29,000  Level Jacksonville Center
16:58 34.2328 -80.1800 26° Northeast 511 588 29,000  Level Jacksonville Center
16:59 34.3644 -80.0953 28° Northeast 511 588 29,000  Level Jacksonville Center
17:01 34.5586 -79.9775 27° Northeast 523 602 29,000 60 Level Washington Center
17:02 34.6828 -79.8956 28° Northeast 518 596 29,200 360 Climbing Washington Center
17:03 34.8139 -79.8419 19° North 498 573 29,800 360 Climbing Washington Center
17:04 34.9422 -79.8131 10° North 486 559 30,000 60 Climbing Washington Center
17:05 35.0744 -79.7922 North 469 540 30,000 360 Level Washington Center
17:06 35.1967 -79.7628 11° North 464 534 30,800 960 Climbing Washington Center
17:07 35.3117 -79.6900 27° Northeast 451 519 32,000 1,140 Climbing Washington Center
17:08 35.4211 -79.6014 33° Northeast 456 525 33,100 1,020 Climbing Washington Center
17:09 35.5328 -79.5125 33° Northeast 467 537 34,100 900 Climbing Washington Center
17:10 35.6356 -79.4256 35° Northeast 481 554 34,900 420 Climbing Washington Center
17:11 35.7619 -79.3267 32° Northeast 481 554 35,000  Climbing Washington Center
17:12 35.8756 -79.2294 35° Northeast 489 563 35,000  Level Washington Center
17:13 35.9953 -79.1322 33° Northeast 494 568 35,000  Level Washington Center
17:14 36.1128 -79.0347 34° Northeast 500 575 35,000  Level Washington Center
17:15 36.2175 -78.9467 34° Northeast 500 575 35,000  Level Washington Center
17:16 36.3350 -78.8486 34° Northeast 500 575 35,000  Level Washington Center
17:17 36.4503 -78.7525 34° Northeast 500 575 35,000 -120 Level Washington Center
17:18 36.5656 -78.6564 34° Northeast 500 575 34,800 -540 Descending Washington Center
17:19 36.6892 -78.5472 35° Northeast 500 575 34,000 -420 Descending Washington Center
17:20 36.7892 -78.4656 33° Northeast 489 563 34,000  Level Washington Center
17:21 36.9022 -78.3683 35° Northeast 484 557 34,000  Level Washington Center
17:22 36.9906 -78.2364 50° Northeast 484 557 34,000  Level Washington Center
17:23 37.0108 -78.0733 81° East 451 519 34,000  Level Washington Center
17:24 37.0267 -77.9047 83° East 451 519 34,000  Level Washington Center
17:25 37.0422 -77.7386 83° East 471 542 34,000  Level Washington Center
17:26 37.0597 -77.5750 82° East 476 548 34,000  Level Washington Center
17:27 37.1311 -77.4233 59° Northeast 476 548 34,000  Level Washington Center
17:28 37.2531 -77.3453 27° Northeast 450 518 34,000  Level Washington Center
17:29 37.3803 -77.3586 355° North 425 489 34,000  Level Washington Center
17:30 37.4942 -77.4136 339° North 401 461 34,000  Level Washington Center
17:31 37.6058 -77.4686 339° North 409 471 34,000  Level Washington Center
17:32 37.7175 -77.5267 338° Northwest 421 484 34,000  Level Washington Center
17:33 37.8381 -77.5533 350° North 427 491 34,000  Level Washington Center
17:34 37.9581 -77.4800 26° Northeast 432 497 34,000  Level Washington Center
17:35 38.0725 -77.3694 37° Northeast 440 506 34,000  Level Washington Center
17:36 38.1903 -77.3011 25° Northeast 454 522 34,000 -60 Level Washington Center
17:37 38.3111 -77.3169 354° North 436 502 33,900 -600 Descending Washington Center
17:38 38.4189 -77.3461 348° North 425 489 32,900 -960 Descending Washington Center
17:39 38.5386 -77.2931 19° North 438 504 32,000 -960 Descending Washington Center
17:40 38.6197 -77.1619 52° Northeast 422 486 31,000 -1,020 Descending Washington Center
17:41 38.6736 -77.0089 66° East 436 502 30,000 -900 Descending Washington Center
17:42 38.7294 -76.8531 65° Northeast 448 516 29,200 -900 Descending Washington Center
17:43 38.7833 -76.6914 67° East 466 536 28,300 -900 Descending Washington Center
17:44 38.8389 -76.5350 65° Northeast 478 550 27,500 -660 Descending Washington Center
17:45 38.9375 -76.4242 41° Northeast 461 531 27,000 -300 Descending Washington Center
17:46 39.0628 -76.4042 North 442 509 27,000  Level Washington Center
17:48 39.2656 -76.3047 21° North 404 465 27,000  Level Washington Center
17:49 39.2811 -76.1358 83° East 379 436 27,000  Level Washington Center
17:50 39.3525 -75.9942 57° Northeast 428 493 27,000  Level Washington Center
17:51 39.4486 -75.8819 42° Northeast 447 514 27,000 -360 Level Washington Center
17:52 39.5447 -75.7664 43° Northeast 452 520 26,300 -1,620 Descending Washington Center
17:53 39.6386 -75.6589 41° Northeast 462 532 23,800 -2,580 Descending Washington Center
17:54 39.7261 -75.5511 43° Northeast 449 517 21,200 -2,580 Descending Washington Center
17:55 39.8114 -75.4483 43° Northeast 431 496 18,700 -2,100 Descending Washington Center
17:56 39.8986 -75.3428 43° Northeast 405 466 17,100 -2,100 Descending Washington Center
17:57 39.9714 -75.2558 42° Northeast 380 437 14,600 -2,400 Descending Washington Center
17:58 40.0442 -75.1661 43° Northeast 361 415 12,300 -1,800 Descending Washington Center
17:59 40.1103 -75.0869 42° Northeast 341 392 11,000 -1,140 Descending Washington Center
18:00 40.1725 -75.0106 43° Northeast 327 376 10,100 -1,260 Descending Washington Center
18:00 40.2167 -74.9667 37° Northeast 283 326 8,900 -1,260 Descending New York TRACON
18:01 40.2667 -74.8833 52° Northeast 268 308 8,000 -540 Descending New York TRACON
18:03 40.3167 -74.8167 45° Northeast 235 270 7,800 -720 Descending New York TRACON
18:04 40.3500 -74.7667 49° Northeast 217 250 6,500 -1,200 Descending New York TRACON
18:04 40.4000 -74.7167 37° Northeast 220 253 5,600 -780 Descending New York TRACON
18:05 40.4167 -74.6333 75° East 226 260 5,100 -300 Descending New York TRACON
18:06 40.4000 -74.5667 108° East 220 253 5,100 -540 Level New York TRACON
18:07 40.3833 -74.4833 105° East 221 254 4,100 -600 Descending New York TRACON
18:08 40.4000 -74.4167 72° East 197 227 4,000 -60 Descending New York TRACON
18:09 40.4167 -74.3500 72° East 185 213 4,000 -300 Level New York TRACON
18:10 40.4500 -74.3167 37° Northeast 170 196 3,500 -480 Descending New York TRACON
18:11 40.5000 -74.2833 27° Northeast 169 194 3,100 -240 Descending New York TRACON
18:13 40.5500 -74.2667 14° North 166 191 3,000 -360 Descending New York TRACON
18:13 40.5833 -74.2333 37° Northeast 166 191 2,400 -840 Descending New York TRACON
18:14 40.6167 -74.2167 21° North 148 170 1,500 -900 Descending New York TRACON
18:16 40.6500 -74.1833 37° Northeast 131 151 600 -840 Descending New York TRACON